DL8NDG-13 Weather Reports


Display with metric or nautical units.
time (UTC)temp
F
wind
direction
speed
MPH
gust
MPH
rain 1hr
in
rain 24hr
in
rain mn
in
humidity
%
barometer
mb
20260503211608 63 227 0.0 0.0 0.00 0.00 0.00 57 1012.2
20260503210057 63 218 0.0 0.0 0.00 0.00 0.00 59 1011.8
20260503204557 62 225 0.0 0.0 0.00 0.00 0.00 60 1011.6
20260503203054 61 252 0.0 0.0 0.00 0.00 0.00 64 1011.6
20260503201554 61 288 0.0 0.0 0.00 0.00 0.00 65 1011.5
20260503200053 61 286 0.0 0.0 0.00 0.00 0.00 64 1011.3
20260503194555 62 264 0.0 0.0 0.00 0.00 0.00 63 1011.1
20260503193054 63 261 0.0 0.0 0.00 0.00 0.00 62 1010.9
20260503191552 64 286 0.0 0.0 0.00 0.00 0.00 60 1010.9
20260503190051 65 267 0.0 0.0 0.00 0.00 0.00 59 1010.8
20260503184550 67 265 0.0 0.0 0.00 0.00 0.00 56 1010.8
20260503183049 69 264 0.0 0.0 0.00 0.00 0.00 53 1010.7
20260503181617 70 263 0.0 0.0 0.00 0.00 0.00 50 1010.6
20260503180059 71 287 0.0 0.0 0.00 0.00 0.00 47 1010.5
20260503174554 72 265 0.0 0.0 0.00 0.00 0.00 45 1010.3
20260503173146 72 266 0.0 0.0 0.00 0.00 0.00 44 1010.3
20260503171545 73 224 4.0 8.0 0.00 0.00 0.00 43 1010.3
20260503100108 74 38 0.0 0.0 0.00 0.00 0.00 43 1013.6
20260503081527 67 121 0.0 0.0 0.00 0.00 0.00 48 1014.2
20260503071515 62 92 0.0 0.0 0.00 0.00 0.00 55 1014.2
20260503060111 54 360 0.0 0.0 0.00 0.00 0.00 68 1014.6
20260503054547 52 360 0.0 0.0 0.00 0.00 0.00 68 1014.3
20260503053046 51 220 0.0 0.0 0.00 0.00 0.00 75 1014.2
20260503051542 49 224 0.0 0.0 0.00 0.00 0.00 80 1014.1
20260503050041 48 211 0.0 0.0 0.00 0.00 0.00 82 1014.2
20260503044607 47 209 0.0 0.0 0.00 0.00 0.00 83 1014.1
20260503043035 47 209 0.0 0.0 0.00 0.00 0.00 83 1014.2
20260503041533 47 209 0.0 0.0 0.00 0.00 0.00 83 1014.2
20260503040031 46 150 0.0 0.0 0.00 0.00 0.00 83 1014.2
20260503034533 47 150 0.0 0.0 0.00 0.00 0.00 83 1014.2
20260503033028 47 150 0.0 0.0 0.00 0.00 0.00 82 1014.3
20260503031526 47 149 0.0 0.0 0.00 0.00 0.00 83 1014.3
20260503030026 47 148 0.0 0.0 0.00 0.00 0.00 82 1014.3
20260503024523 47 161 0.0 0.0 0.00 0.00 0.00 82 1014.4
20260503023021 47 150 0.0 0.0 0.00 0.00 0.00 82 1014.5
20260503021523 47 151 0.0 0.0 0.00 0.00 0.00 82 1014.6
20260503020031 48 150 0.0 0.0 0.00 0.00 0.00 81 1014.6
20260503014517 48 149 0.0 0.0 0.00 0.00 0.00 81 1014.6
20260503013015 48 148 0.0 0.0 0.00 0.00 0.00 80 1014.7
20260503011512 49 149 0.0 0.0 0.00 0.00 0.00 79 1014.7
20260503010011 49 161 0.0 0.0 0.00 0.00 0.00 79 1014.8
20260503004509 49 162 0.0 0.0 0.00 0.00 0.00 78 1014.8
20260503003010 50 150 0.0 0.0 0.00 0.00 0.00 77 1014.8
20260503001509 50 150 0.0 0.0 0.00 0.00 0.00 78 1014.9
20260503000013 50 149 0.0 0.0 0.00 0.00 0.00 77 1015.0
20260502234507 50 150 0.0 0.0 0.00 0.00 0.00 76 1015.0
20260502233103 50 150 0.0 0.0 0.00 0.00 0.00 75 1015.2
20260502231559 51 150 0.0 0.0 0.00 0.00 0.00 74 1015.2
20260502230056 51 150 0.0 0.0 0.00 0.00 0.00 72 1015.4
20260502224555 52 149 0.0 0.0 0.00 0.00 0.00 70 1015.4
20260502223100 52 149 0.0 0.0 0.00 0.00 0.00 70 1015.5
20260502221548 53 150 0.0 0.0 0.00 0.00 0.00 70 1015.4
20260502220048 54 151 0.0 0.0 0.00 0.00 0.00 69 1015.5
20260502214606 54 169 0.0 0.0 0.00 0.00 0.00 67 1015.5
20260502213103 55 161 0.0 0.0 0.00 0.00 0.00 65 1015.5